Location: Moy Burn
(57.3833°N, 4.0667°W)
Time: 09:24:45
(UTC+00:00)

Cosmos 841 Rocket - Pass Details

Date: 08 August 2020
Orbit: 746 x 773 km, 74.0° (Epoch: 18 September)

Event Time Altitude Azimuth Distance (km) Brightness Sun altitude
Rises 23:11:48 0° 328° (NNW) 3,228 8.3 -15.4°
Reaches altitude 10° 23:14:16 10° 321° (NW) 2,303 7.1 -15.5°
Maximum altitude 23:19:08 41° 253° (WSW) 1,103 4.3 -15.7°
Enters shadow 23:22:08 21° 195° (SSW) 1,667 4.7 -15.8°
